Snowfall_Accumulation
0.0 0.0 0.0 0.0 0.0 0.0 0.0 0.0 0.0 0.0 0.0 0.0 0.0 0.0 0.0 0.0 0.0 0.0 0.0 0.0 0.0 0.0 0.0 0.0 0.0 0.0 0.0
0.0 0.3 0.4 0.1 0.2 0.0 0.0 0.0 0.0 0.0 0.0 0.0 0.0 0.0 0.0 0.0 0.0 0.0 0.0 0.0 0.0 0.0 0.0 0.0 0.0 0.0 0.0
0.3 0.8 1.3 0.9 2.0 1.6 1.1 0.0 0.0 0.0 0.0 0.0 0.0 0.0 0.0 0.0 0.0 0.0 0.0 0.0 0.0 0.0 0.0 0.0 0.0 0.0 0.0
0.3 1.0 0.8 0.5 0.3 0.4 0.4 0.2 0.0 0.0 0.0 0.0 0.0 0.0 0.0 0.0 0.0 0.0 0.0 0.0 0.0 0.0 0.0 0.0 0.0 0.0 0.0
0.9 0.3 0.3 0.3 0.3 0.2 0.1 0.0 0.0 0.0 0.0 0.0 0.0 0.0 0.0 0.0 0.0 0.0 0.0 0.0 0.0 0.0 0.0 0.0 0.0 0.0 0.0
0.4 0.0 0.0 0.0 0.0 0.0 0.2 0.3 0.6 0.0 0.0 0.0 0.0 0.1 0.0 0.0 0.0 0.0 0.0 0.0 0.0 0.0 0.0 0.0 0.0 0.0 0.0
0.0 0.0 0.0 0.0 0.4 0.3 0.6 0.8 0.1 0.0 0.0 0.0 0.0 0.0 0.0 0.0 0.0 0.0 0.0 0.0 0.0 0.0 0.0 0.0 0.0 0.0 0.0
0.0 0.0 0.1 0.1 0.3 0.3 0.3 0.2 0.0 0.0 0.0 0.1 0.0 0.0 0.0 0.0 0.0 0.0 0.0 0.0 0.0 0.0 0.0 0.0 0.0 0.0 0.0
0.0 0.0 0.0 0.0 0.0 0.0 0.2 0.5 0.3 0.0 0.0 0.0 0.0 0.0 0.0 0.0 0.0 0.0 0.0 0.0 0.0 0.0 0.0 0.0 0.0 0.0 0.0
0.0 0.0 0.0 0.0 0.0 0.0 0.1 1.7 1.2 0.9 0.0 1.0 0.0 0.2 1.7 0.0 0.0 0.0 0.0 0.0 0.0 0.0 0.0 0.0 0.0 0.0 0.1
0.0 0.0 0.0 0.0 0.0 0.0 0.0 1.1 3.5 2.5 0.0 3.1 4.2 0.1 3.0 0.3 0.0 0.0 0.0 0.0 0.0 0.0 0.0 0.0 0.1 0.1 0.8
0.1 0.0 0.0 0.0 0.0 0.0 0.0 0.0 0.1 1.4 0.3 0.5 8.1 2.1 5.1 3.1 0.0 0.0 0.0 0.0 0.0 0.0 0.0 0.0 0.0 0.0 0.1
0.0 0.0 0.0 0.0 0.0 0.0 0.0 0.0 0.0 0.0 0.0 0.0 1.0 2.1 5.1 5.5 2.5 0.2 0.0 0.0 0.0 0.1 0.2 0.4 0.6 0.4 0.8
0.3 0.1 0.0 0.0 0.1 0.0 0.1 0.0 0.5 0.0 0.0 0.0 0.0 1.0 4.9 1.9 2.9 2.1 0.0 0.7 0.2 0.3 0.6 0.4 0.2 0.4 0.9
0.1 0.3 0.0 0.0 0.1 0.0 0.2 0.6 2.3 2.3 2.9 1.3 0.0 0.0 0.2 1.0 4.1 0.0 0.0 0.0 0.0 0.9 1.3 1.4 0.2 1.1 1.0
1.1 1.1 1.7 1.5 1.1 2.5 2.2 2.6 3.5 1.9 3.7 3.8 3.9 5.3 5.0 4.2 0.0 3.3 2.5 0.5 0.7 0.3 1.0 4.5 2.6 0.4 0.2
3.4 3.2 4.2 3.5 3.7 3.7 2.8 3.0 3.3 2.2 3.9 4.5 6.3 9.7 13.0 6.7 2.2 1.0 5.3 4.8 2.1 1.6 1.5 2.9 3.8 1.6 0.8